Location: Davidschlag
(48.4333°N, 14.2833°E)
Time: 17:00:20
(UTC+00:00)

Okean 3 - Pass Details

Date: 27 February 2020
Orbit: 575 x 602 km, 82.5° (Epoch: 07 April)

Event Time Altitude Azimuth Distance (km) Brightness Sun altitude
Rises 17:48:57 0° 359° (N) 2,827 7.0 -11.7°
Reaches altitude 10° 17:51:27 10° 12° (NNE) 1,917 6.0 -12.2°
Maximum altitude 17:55:02 26° 71° (ENE) 1,152 4.4 -12.8°
Enters shadow 17:56:58 19° 111° (ESE) 1,409 4.8 -13.1°
